Language: 


Des rapports , des résumés tant et plus, au choix de chacun....


Données statistiques de la station
Quotidien Rapport Septembre 12, 2017 Unités:  Anglais    Métrique   les deux
« Précédent Jour
Suivant Jour »
Quotidien Hebdomadaire Mensuel Annuel Actuel
  Haut: Bas: Moyen:
Température: 68.4 °F 32 °F 58.8 °F
Pt de rosée: 57.2 °F 46.4 °F 53.4 °F
Humidité: 98 % 0 % 80 %
Vitesse du vent: 19.5 mph 0 mph 6.6 mph
Rafales: 23 mph - -
Vent:- - WSW
Pression: 29.8 in 29.5 in -
Précipitation: 0.01 in    
Historical Graphs
 
 
Données statistiques pour Septembre 12, 2017
Heure Température Point de rosée Pression Vent Vitesse du vent Refales Humidité Pluie (taux horaire)
00:02 56.1 °F 55.4 °F 29.5 in WSW 6.3 mph 7.8 mph 98 % 0 in
00:07 56.3 °F 57.2 °F 29.5 in SSW 7.6 mph 7.6 mph 98 % 0 in
00:12 56.3 °F 57.2 °F 29.5 in WSW 8.5 mph 8.5 mph 98 % 0 in
00:17 56.5 °F 57.2 °F 29.5 in SSW 7.8 mph 8.5 mph 98 % 0 in
00:23 56.5 °F 57.2 °F 29.5 in WSW 7.4 mph 7.8 mph 98 % 0 in
00:28 56.5 °F 57.2 °F 29.5 in WSW 5.4 mph 10.1 mph 98 % 0 in
00:33 56.5 °F 57.2 °F 29.5 in SSW 6 mph 10.1 mph 98 % 0 in
00:38 56.5 °F 57.2 °F 29.5 in WSW 6.5 mph 8.5 mph 98 % 0 in
00:43 56.3 °F 57.2 °F 29.5 in WSW 4.7 mph 8.5 mph 98 % 0 in
00:48 56.3 °F 57.2 °F 29.5 in SW 2.2 mph 7.8 mph 98 % 0 in
00:53 55.9 °F 55.4 °F 29.5 in WSW 4.3 mph 7.8 mph 98 % 0 in
00:58 55.9 °F 55.4 °F 29.5 in SSW 2.9 mph 6.5 mph 98 % 0 in
01:03 55.9 °F 55.4 °F 29.5 in SW 2.5 mph 5.8 mph 98 % 0 in
01:08 55.8 °F 55.4 °F 29.5 in WSW 5.8 mph 5.8 mph 98 % 0 in
01:13 55.8 °F 55.4 °F 29.5 in SSW 4.3 mph 6.5 mph 98 % 0 in
01:18 55.6 °F 55.4 °F 29.6 in WSW 0.9 mph 6.5 mph 98 % 0 in
01:23 55.6 °F 55.4 °F 29.6 in WSW 3.8 mph 5.4 mph 98 % 0 in
01:28 55.4 °F 55.4 °F 29.6 in Calm   5.4 mph 98 % 0 in
01:33 55 °F 55.4 °F 29.6 in West 4.9 mph 4.9 mph 98 % 0 in
01:38 55 °F 55.4 °F 29.6 in Calm   4.9 mph 98 % 0 in
01:43 54.5 °F 55.4 °F 29.6 in Calm   4.9 mph 98 % 0 in
01:48 54.5 °F 55.4 °F 29.6 in Calm   3.1 mph 98 % 0 in
01:53 54.5 °F 55.4 °F 29.6 in Calm   3.1 mph 98 % 0 in
01:58 54.5 °F 55.4 °F 29.6 in Calm   4.3 mph 98 % 0 in
02:03 54.7 °F 55.4 °F 29.6 in SW 6 mph 6.7 mph 98 % 0 in
02:08 54.7 °F 55.4 °F 29.6 in SSW 3.4 mph 6.7 mph 98 % 0 in
02:14 54.9 °F 55.4 °F 29.6 in SSW 6.3 mph 6.5 mph 98 % 0 in
02:19 54.9 °F 55.4 °F 29.6 in South 5.8 mph 6.3 mph 98 % 0 in
02:24 55 °F 55.4 °F 29.6 in SSW 5.6 mph 7.4 mph 98 % 0 in
02:29 55 °F 55.4 °F 29.6 in WSW 5.4 mph 7.4 mph 98 % 0 in
02:34 55 °F 55.4 °F 29.5 in WSW 2.5 mph 7.2 mph 98 % 0 in
02:39 55 °F 55.4 °F 29.5 in WSW 2.7 mph 7.2 mph 98 % 0 in
02:44 55 °F 55.4 °F 29.5 in Calm   4 mph 98 % 0 in
02:49 55 °F 55.4 °F 29.6 in SW 4 mph 6.3 mph 98 % 0 in
02:54 55 °F 55.4 °F 29.6 in SW 4.9 mph 6.3 mph 98 % 0 in
02:59 55 °F 55.4 °F 29.6 in SSW 4 mph 6.3 mph 98 % 0 in
03:04 32 °F 55.4 °F 29.6 in SSW 3.8 mph 5.6 mph 0 % 0 in
03:09 32 °F 55.4 °F 29.6 in SSW 4.9 mph 6.3 mph 0 % 0 in
03:14 32 °F 55.4 °F 29.6 in WSW 3.8 mph 6.3 mph 0 % 0 in
03:19 32 °F 55.4 °F 29.6 in SSW 3.1 mph 6.3 mph 0 % 0 in
03:24 55 °F 55.4 °F 29.6 in WSW 6 mph 6 mph 98 % 0 in
03:29 55 °F 55.4 °F 29.6 in SW 3.6 mph 6 mph 98 % 0 in
03:34 54.9 °F 55.4 °F 29.6 in SSW 3.4 mph 5.6 mph 98 % 0 in
03:39 54.9 °F 55.4 °F 29.6 in WSW 4.9 mph 5.6 mph 98 % 0 in
03:44 54.9 °F 55.4 °F 29.6 in SW 6.5 mph 6.5 mph 98 % 0 in
03:49 54.9 °F 55.4 °F 29.6 in SSW 4 mph 7.8 mph 98 % 0 in
03:54 54.9 °F 55.4 °F 29.6 in SW 7.8 mph 7.8 mph 98 % 0 in
03:57 54.9 °F 55.4 °F 29.6 in SSW 6 mph 7.8 mph 98 % 0 in
04:02 54.9 °F 55.4 °F 29.6 in SSW 5.4 mph 7.8 mph 98 % 0 in
04:07 54.9 °F 55.4 °F 29.6 in WSW 4.3 mph 6 mph 98 % 0 in
04:12 54.9 °F 55.4 °F 29.6 in WSW 2 mph 6.3 mph 98 % 0 in
04:17 54.9 °F 55.4 °F 29.6 in West 2.9 mph 6.3 mph 98 % 0 in
04:22 54.7 °F 55.4 °F 29.6 in WSW 1.6 mph 6.3 mph 98 % 0 in
04:27 54.7 °F 55.4 °F 29.6 in Calm   4.9 mph 98 % 0 in
04:32 54.7 °F 55.4 °F 29.6 in WSW 4.9 mph 4.9 mph 98 % 0 in
04:37 54.7 °F 55.4 °F 29.6 in WSW 3.8 mph 5.6 mph 98 % 0 in
04:42 54.5 °F 55.4 °F 29.6 in Calm   5.6 mph 98 % 0 in
04:47 54.5 °F 55.4 °F 29.6 in West 3.6 mph 4.9 mph 98 % 0 in
04:52 54.5 °F 55.4 °F 29.6 in WSW 5.6 mph 5.8 mph 98 % 0 in
04:57 54.5 °F 55.4 °F 29.6 in Calm   5.8 mph 98 % 0 in
05:02 54.5 °F 55.4 °F 29.6 in Calm   6.3 mph 98 % 0 in
05:07 54.5 °F 55.4 °F 29.6 in WSW 4.9 mph 6.3 mph 98 % 0 in
05:13 54.5 °F 55.4 °F 29.6 in WSW 2.9 mph 8.1 mph 98 % 0 in
05:18 54.1 °F 55.4 °F 29.6 in WSW 4 mph 8.1 mph 98 % 0 in
05:20 54.1 °F 55.4 °F 29.6 in WSW 5.8 mph 5.8 mph 98 % 0 in
05:21 54.1 °F 55.4 °F 29.6 in WSW 2.9 mph 5.8 mph 98 % 0 in
05:26 54.1 °F 55.4 °F 29.6 in SW 4.3 mph 6 mph 98 % 0 in
05:31 54.1 °F 55.4 °F 29.6 in SW 2.7 mph 6 mph 98 % 0 in
05:36 53.8 °F 53.6 °F 29.6 in Calm   4.9 mph 98 % 0 in
05:41 53.6 °F 53.6 °F 29.6 in SSW 4.3 mph 4.3 mph 98 % 0 in
05:46 53.4 °F 53.6 °F 29.6 in Calm   4.7 mph 98 % 0 in
05:51 53.4 °F 53.6 °F 29.6 in SW 3.1 mph 6.3 mph 98 % 0 in
05:56 53.4 °F 53.6 °F 29.6 in SSW 3.8 mph 6.3 mph 98 % 0 in
06:01 53.4 °F 53.6 °F 29.6 in West 4.3 mph 5.4 mph 98 % 0 in
06:06 53.1 °F 53.6 °F 29.6 in Calm   5.6 mph 98 % 0 in
06:11 53.1 °F 53.6 °F 29.6 in WSW 4 mph 6 mph 98 % 0 in
06:16 52.9 °F 53.6 °F 29.6 in WSW 3.6 mph 6 mph 98 % 0 in
06:21 52.9 °F 53.6 °F 29.6 in WSW 4 mph 4 mph 98 % 0 in
06:26 52.7 °F 53.6 °F 29.6 in WSW 4.3 mph 4.3 mph 98 % 0 in
06:28 52.7 °F 53.6 °F 29.6 in WSW 2.9 mph 4.3 mph 98 % 0 in
06:33 52.3 °F 51.8 °F 29.6 in Calm   4.3 mph 98 % 0 in
06:38 52.3 °F 51.8 °F 29.6 in Calm   4.3 mph 98 % 0 in
06:43 52.3 °F 51.8 °F 29.6 in WSW 3.4 mph 4.3 mph 98 % 0 in
06:48 52.3 °F 51.8 °F 29.6 in West 3.8 mph 4.7 mph 98 % 0 in
06:53 52.2 °F 51.8 °F 29.6 in WSW 4.7 mph 4.7 mph 98 % 0 in
06:58 52.2 °F 51.8 °F 29.6 in Calm   4.7 mph 98 % 0 in
07:03 52 °F 51.8 °F 29.6 in WSW 2.7 mph 4.9 mph 98 % 0 in
07:08 52 °F 51.8 °F 29.6 in Calm   4.9 mph 98 % 0 in
07:09 52 °F 51.8 °F 29.6 in Calm   4.9 mph 98 % 0 in
07:14 51.6 °F 51.8 °F 29.6 in Calm   3.8 mph 98 % 0 in
07:19 51.8 °F 51.8 °F 29.6 in WSW 2.9 mph 3.6 mph 98 % 0 in
07:22 51.8 °F 51.8 °F 29.6 in Calm   3.6 mph 98 % 0 in
07:27 51.8 °F 51.8 °F 29.6 in Calm   2.9 mph 98 % 0 in
07:32 51.4 °F 51.8 °F 29.6 in Calm   4 mph 98 % 0 in
07:37 51.6 °F 51.8 °F 29.6 in Calm   4 mph 98 % 0 in
07:42 51.6 °F 51.8 °F 29.6 in Calm   2.5 mph 98 % 0 in
07:47 51.6 °F 51.8 °F 29.7 in Calm   2.5 mph 98 % 0 in
07:52 51.6 °F 51.8 °F 29.7 in Calm     98 % 0 in
07:57 51.6 °F 51.8 °F 29.7 in Calm     98 % 0 in
07:58 51.6 °F 51.8 °F 29.7 in Calm     98 % 0 in
08:03 51.8 °F 51.8 °F 29.7 in Calm     98 % 0 in
08:08 51.8 °F 51.8 °F 29.7 in Calm     98 % 0 in
08:13 52.2 °F 51.8 °F 29.7 in West 3.4 mph 3.4 mph 98 % 0 in
08:18 52.5 °F 51.8 °F 29.7 in WSW 2.7 mph 4.3 mph 98 % 0 in
08:23 53.1 °F 53.6 °F 29.7 in West 4.3 mph 5.6 mph 98 % 0 in
08:28 53.1 °F 53.6 °F 29.7 in West 4.7 mph 5.6 mph 98 % 0 in
08:33 53.8 °F 53.6 °F 29.7 in West 3.4 mph 5.4 mph 98 % 0 in
08:38 54.3 °F 55.4 °F 29.7 in WSW 4.7 mph 5.6 mph 98 % 0 in
08:43 54.7 °F 55.4 °F 29.7 in WSW 4 mph 6 mph 98 % 0 in
08:48 55 °F 55.4 °F 29.6 in WSW 4.9 mph 6 mph 98 % 0 in
08:54 55.2 °F 55.4 °F 29.6 in WSW 2.9 mph 6 mph 98 % 0 in
08:59 55.9 °F 55.4 °F 29.6 in Calm   6.3 mph 98 % 0 in
09:04 56.3 °F 57.2 °F 29.7 in SW 4 mph 6.3 mph 98 % 0 in
09:09 56.5 °F 57.2 °F 29.7 in WSW 3.6 mph 6.3 mph 98 % 0 in
09:14 56.8 °F 57.2 °F 29.7 in WSW 6.3 mph 8.1 mph 98 % 0 in
09:19 56.8 °F 57.2 °F 29.7 in SSW 7.4 mph 8.7 mph 98 % 0 in
09:24 57.2 °F 57.2 °F 29.7 in WSW 7.6 mph 9.6 mph 98 % 0 in
09:26 57.2 °F 57.2 °F 29.7 in WSW 7.6 mph 9.6 mph 98 % 0 in
09:31 57.9 °F 57.2 °F 29.6 in West 5.8 mph 7.6 mph 98 % 0 in
09:36 57.9 °F 57.2 °F 29.6 in WSW 8.7 mph 8.7 mph 98 % 0 in
09:41 58.1 °F 57.2 °F 29.6 in WSW 8.1 mph 8.7 mph 96 % 0 in
09:46 58.3 °F 57.2 °F 29.7 in WSW 9.6 mph 9.6 mph 95 % 0 in
09:51 58.5 °F 57.2 °F 29.7 in West 6.5 mph 9.6 mph 95 % 0 in
09:56 58.8 °F 57.2 °F 29.7 in WSW 9.6 mph 10.3 mph 94 % 0 in
10:01 59 °F 57.2 °F 29.7 in West 8.5 mph 10.3 mph 93 % 0 in
10:06 59 °F 57.2 °F 29.7 in WSW 8.1 mph 10.1 mph 93 % 0 in
10:11 59.5 °F 57.2 °F 29.7 in SW 7.8 mph 10.1 mph 93 % 0 in
10:16 59.9 °F 57.2 °F 29.7 in WSW 7.4 mph 9.4 mph 92 % 0 in
10:22 59.5 °F 57.2 °F 29.7 in West 9.8 mph 12.5 mph 91 % 0 in
10:27 59.5 °F 57.2 °F 29.7 in WSW 7.6 mph 12.5 mph 91 % 0 in
10:32 60.4 °F 57.2 °F 29.7 in West 6.3 mph 9.8 mph 90 % 0 in
10:37 60.6 °F 57.2 °F 29.7 in WSW 6 mph 8.7 mph 90 % 0 in
10:42 60.6 °F 57.2 °F 29.7 in WSW 8.5 mph 8.7 mph 88 % 0 in
10:47 61 °F 57.2 °F 29.7 in West 10.7 mph 10.7 mph 88 % 0 in
10:52 61 °F 57.2 °F 29.7 in West 10.7 mph 10.7 mph 88 % 0 in
10:57 61 °F 57.2 °F 29.7 in WSW 6.3 mph 10.7 mph 85 % 0 in
11:02 61 °F 57.2 °F 29.7 in WSW 8.1 mph 11 mph 85 % 0 in
11:07 61.5 °F 57.2 °F 29.7 in WSW 4 mph 11 mph 84 % 0 in
11:12 62.1 °F 57.2 °F 29.7 in WSW 8.5 mph 13 mph 82 % 0 in
11:17 62.4 °F 57.2 °F 29.7 in WNW 8.5 mph 13 mph 81 % 0 in
11:22 62.4 °F 57.2 °F 29.7 in NNW 7.6 mph 13.2 mph 81 % 0 in
11:27 61.7 °F 55.4 °F 29.7 in WSW 8.7 mph 13.2 mph 81 % 0 in
11:32 61.7 °F 55.4 °F 29.7 in West 9.8 mph 9.8 mph 81 % 0 in
11:37 61 °F 55.4 °F 29.7 in West 5.4 mph 11 mph 79 % 0 in
11:42 61.9 °F 55.4 °F 29.7 in WSW 11 mph 15.2 mph 78 % 0 in
11:47 61.9 °F 55.4 °F 29.7 in West 14.8 mph 15.2 mph 78 % 0 in
11:52 61.9 °F 55.4 °F 29.7 in WSW 12.3 mph 14.8 mph 78 % 0 in
11:58 61.9 °F 55.4 °F 29.7 in WSW 8.1 mph 14.3 mph 78 % 0 in
12:03 64.4 °F 53.6 °F 29.7 in WSW 10.3 mph 12.8 mph 69 % 0 in
12:08 64.4 °F 55.4 °F 29.7 in SW 7.6 mph 12.8 mph 70 % 0 in
12:13 65.1 °F 55.4 °F 29.7 in West 7.6 mph 13 mph 69 % 0 in
12:18 65.1 °F 55.4 °F 29.7 in West 12.8 mph 13 mph 69 % 0 in
12:23 64.8 °F 53.6 °F 29.7 in WNW 10.5 mph 13.2 mph 66 % 0 in
12:28 64.8 °F 53.6 °F 29.7 in WNW 10.5 mph 15.2 mph 66 % 0 in
12:33 63.5 °F 53.6 °F 29.7 in West 6.5 mph 15.2 mph 67 % 0 in
12:43 64.2 °F 53.6 °F 29.7 in NNW 5.6 mph 10.7 mph 68 % 0 in
12:48 64.2 °F 53.6 °F 29.7 in NW 6 mph 10.7 mph 68 % 0 in
12:53 64.2 °F 53.6 °F 29.7 in West 9.8 mph 14.8 mph 68 % 0 in
12:58 63.5 °F 53.6 °F 29.7 in WSW 4.9 mph 14.8 mph 68 % 0 in
13:03 65.5 °F 55.4 °F 29.7 in WNW 7.2 mph 9.8 mph 67 % 0 in
13:08 65.5 °F 55.4 °F 29.7 in NNW 3.8 mph 13.9 mph 67 % 0 in
13:13 65.5 °F 53.6 °F 29.7 in WNW 11 mph 13.9 mph 65 % 0 in
13:18 65.5 °F 53.6 °F 29.7 in NW 11.9 mph 11.9 mph 65 % 0 in
13:23 66.6 °F 53.6 °F 29.7 in West 8.7 mph 11.9 mph 62 % 0 in
13:28 66.6 °F 53.6 °F 29.7 in West 3.8 mph 8.9 mph 62 % 0 in
13:33 66.9 °F 53.6 °F 29.7 in WSW 10.1 mph 17.2 mph 61 % 0 in
13:38 67.1 °F 53.6 °F 29.7 in West 16.1 mph 17.2 mph 60 % 0 in
13:43 67.5 °F 50 °F 29.7 in WNW 12.8 mph 16.1 mph 55 % 0 in
13:48 66.4 °F 50 °F 29.7 in West 10.1 mph 16.1 mph 57 % 0 in
13:53 66.4 °F 50 °F 29.7 in West 9.8 mph 13.2 mph 57 % 0 in
13:58 65.8 °F 50 °F 29.7 in West 10.3 mph 13 mph 58 % 0 in
14:04 66.6 °F 51.8 °F 29.7 in West 11 mph 16.1 mph 57 % 0 in
14:09 67.1 °F 51.8 °F 29.7 in WSW 7.8 mph 16.1 mph 58 % 0 in
14:14 67.6 °F 51.8 °F 29.7 in West 11 mph 14.5 mph 57 % 0 in
14:19 66.4 °F 50 °F 29.7 in West 8.7 mph 14.5 mph 55 % 0 in
14:24 66.9 °F 51.8 °F 29.7 in West 11 mph 17 mph 58 % 0 in
14:29 67.5 °F 51.8 °F 29.7 in West 13.9 mph 17 mph 58 % 0 in
14:34 67.1 °F 50 °F 29.8 in West 8.5 mph 17.9 mph 53 % 0 in
14:39 67.6 °F 50 °F 29.8 in West 8.5 mph 17.9 mph 55 % 0 in
14:44 68.2 °F 51.8 °F 29.8 in West 10.1 mph 17.9 mph 57 % 0 in
14:49 68.4 °F 51.8 °F 29.7 in West 9.8 mph 17.9 mph 54 % 0 in
14:54 68.4 °F 51.8 °F 29.7 in West 11 mph 15.4 mph 55 % 0 in
14:59 67.6 °F 50 °F 29.7 in WNW 12.1 mph 15.4 mph 55 % 0 in
15:04 67.6 °F 50 °F 29.8 in WSW 13.4 mph 13.9 mph 55 % 0 in
15:09 68.4 °F 51.8 °F 29.8 in West 10.5 mph 15.2 mph 55 % 0 in
15:14 68.2 °F 48.2 °F 29.8 in SSW 17.2 mph 20.1 mph 50 % 0.01 in
15:19 68.2 °F 50 °F 29.8 in WSW 7.8 mph 20.1 mph 53 % 0.01 in
15:24 68 °F 50 °F 29.8 in West 16.1 mph 19.5 mph 51 % 0.01 in
15:29 67.1 °F 50 °F 29.8 in West 13.2 mph 19.2 mph 52 % 0.01 in
15:34 67.1 °F 50 °F 29.8 in West 5.8 mph 17.4 mph 52 % 0.01 in
15:39 66.4 °F 50 °F 29.8 in West 13.2 mph 15.2 mph 55 % 0.01 in
15:44 67.1 °F 51.8 °F 29.8 in South 12.1 mph 15.2 mph 58 % 0.01 in
15:46 67.1 °F 51.8 °F 29.8 in WNW 10.7 mph 17.7 mph 58 % 0.01 in
15:51 67.1 °F 51.8 °F 29.8 in West 14.8 mph 17.7 mph 58 % 0.01 in
15:56 68 °F 48.2 °F 29.8 in WSW 13.2 mph 17.7 mph 50 % 0.01 in
16:01 68.4 °F 50 °F 29.8 in SW 17.2 mph 17.2 mph 51 % 0.01 in
16:06 68 °F 48.2 °F 29.8 in West 19.2 mph 19.2 mph 49 % 0.01 in
16:11 68.2 °F 50 °F 29.8 in WSW 7.8 mph 19.2 mph 51 % 0.01 in
16:16 68 °F 48.2 °F 29.8 in SSW 19.5 mph 19.9 mph 48 % 0 in
16:21 68 °F 48.2 °F 29.8 in WSW 13.6 mph 23 mph 48 % 0 in
16:26 68 °F 48.2 °F 29.8 in WSW 15.7 mph 23 mph 48 % 0 in
16:36 67.5 °F 48.2 °F 29.8 in WSW 15.9 mph 19.5 mph 49 % 0 in
16:41 66.4 °F 46.4 °F 29.8 in West 16.8 mph 18.8 mph 49 % 0 in
16:46 66.4 °F 46.4 °F 29.8 in West 12.8 mph 19.5 mph 49 % 0 in
16:51 66.6 °F 48.2 °F 29.8 in WSW 17.7 mph 19.5 mph 50 % 0 in
16:56 66.6 °F 48.2 °F 29.8 in West 12.8 mph 19.5 mph 50 % 0 in
17:02 66.6 °F 48.2 °F 29.8 in West 12.5 mph 19.9 mph 50 % 0 in
17:07 66.6 °F 48.2 °F 29.8 in West 14.3 mph 19.9 mph 50 % 0 in
17:12 66.6 °F 48.2 °F 29.8 in WSW 13 mph 17.4 mph 50 % 0 in
17:17 66.6 °F 48.2 °F 29.8 in WSW 16.8 mph 20.1 mph 50 % 0 in
17:22 66 °F 48.2 °F 29.8 in WSW 12.8 mph 20.1 mph 52 % 0 in
17:27 66 °F 48.2 °F 29.8 in West 15.4 mph 19.7 mph 52 % 0 in
17:32 65.8 °F 48.2 °F 29.8 in West 18.8 mph 18.8 mph 54 % 0 in
17:37 65.5 °F 48.2 °F 29.8 in West 17.7 mph 18.8 mph 55 % 0 in
17:42 65.5 °F 48.2 °F 29.8 in WSW 8.9 mph 17.7 mph 55 % 0 in
17:47 65.1 °F 50 °F 29.8 in West 12.8 mph 17.7 mph 57 % 0 in
17:52 65.3 °F 48.2 °F 29.8 in West 15.4 mph 17 mph 55 % 0 in
17:57 63.9 °F 48.2 °F 29.8 in West 9.8 mph 19.5 mph 56 % 0 in
18:02 63.9 °F 48.2 °F 29.8 in WSW 10.5 mph 19.5 mph 58 % 0 in
18:12 64.6 °F 50 °F 29.8 in WSW 15.2 mph 17 mph 58 % 0 in
18:17 64.6 °F 50 °F 29.8 in WSW 12.8 mph 17.9 mph 58 % 0 in
18:22 64 °F 50 °F 29.8 in West 15.2 mph 17.9 mph 60 % 0 in
18:27 63.9 °F 50 °F 29.8 in West 9.4 mph 17.2 mph 59 % 0 in
18:32 63.9 °F 50 °F 29.8 in WSW 15.2 mph 17.2 mph 59 % 0 in
18:38 63.9 °F 50 °F 29.8 in WSW 10.1 mph 15.2 mph 59 % 0 in
18:43 63.9 °F 50 °F 29.8 in WSW 8.7 mph 14.5 mph 59 % 0 in
18:48 63.9 °F 50 °F 29.8 in West 10.3 mph 13.4 mph 59 % 0 in
18:53 63 °F 50 °F 29.8 in WSW 10.5 mph 17 mph 62 % 0 in
18:57 63 °F 50 °F 29.8 in WSW 9.8 mph 17 mph 62 % 0 in
19:03 62.8 °F 50 °F 29.8 in WSW 6 mph 17 mph 64 % 0 in
19:08 62.8 °F 51.8 °F 29.8 in SW 6.7 mph 9.8 mph 65 % 0 in
19:12 62.8 °F 51.8 °F 29.8 in WSW 7.8 mph 13.6 mph 65 % 0 in
19:18 62.8 °F 51.8 °F 29.8 in West 8.5 mph 13.6 mph 65 % 0 in
19:23 62.8 °F 51.8 °F 29.8 in WSW 7.8 mph 14.1 mph 65 % 0 in
19:28 61.3 °F 51.8 °F 29.8 in SW 4.9 mph 14.1 mph 68 % 0 in
19:33 61.3 °F 51.8 °F 29.8 in WSW 8.7 mph 12.1 mph 68 % 0 in
19:38 61.3 °F 51.8 °F 29.8 in WSW 8.1 mph 12.1 mph 68 % 0 in
19:43 61.3 °F 51.8 °F 29.8 in WSW 8.5 mph 10.3 mph 68 % 0 in
19:48 61.3 °F 51.8 °F 29.8 in WSW 7.6 mph 9.8 mph 68 % 0 in
19:53 59.4 °F 51.8 °F 29.8 in WSW 4 mph 9.8 mph 73 % 0 in
19:58 59.4 °F 51.8 °F 29.8 in WSW 6.3 mph 9.8 mph 73 % 0 in
20:03 59 °F 51.8 °F 29.8 in WSW 7.6 mph 9.8 mph 74 % 0 in
20:08 59 °F 51.8 °F 29.8 in WSW 6.5 mph 12.3 mph 74 % 0 in
20:13 58.8 °F 51.8 °F 29.8 in WSW 4.3 mph 12.3 mph 75 % 0 in
20:18 59 °F 51.8 °F 29.8 in WSW 4.9 mph 8.7 mph 76 % 0 in
20:23 59 °F 51.8 °F 29.8 in WSW 4.3 mph 7.6 mph 76 % 0 in
20:28 59 °F 51.8 °F 29.8 in SSW 5.4 mph 8.5 mph 76 % 0 in
20:33 59 °F 51.8 °F 29.8 in SW 9.6 mph 10.7 mph 76 % 0 in
20:38 59 °F 51.8 °F 29.8 in West 5.8 mph 10.7 mph 76 % 0 in
20:44 59 °F 51.8 °F 29.8 in SSW 4.9 mph 10.3 mph 76 % 0 in
20:49 59 °F 51.8 °F 29.7 in SW 4.9 mph 12.3 mph 76 % 0 in
20:54 59 °F 51.8 °F 29.7 in SSW 4.3 mph 12.3 mph 76 % 0 in
20:59 59 °F 51.8 °F 29.7 in SW 7.4 mph 8.1 mph 76 % 0 in
21:04 59 °F 51.8 °F 29.7 in SW 3.1 mph 9.8 mph 76 % 0 in
21:09 59 °F 51.8 °F 29.7 in WSW 6.3 mph 9.8 mph 78 % 0 in
21:14 59 °F 51.8 °F 29.7 in SW 2.9 mph 8.7 mph 78 % 0 in
21:19 59 °F 51.8 °F 29.7 in SW 2 mph 8.7 mph 78 % 0 in
21:24 58.5 °F 53.6 °F 29.7 in Calm   7.4 mph 80 % 0 in
21:29 58.5 °F 53.6 °F 29.7 in SSW 4 mph 8.5 mph 80 % 0 in
21:34 58.1 °F 53.6 °F 29.7 in SSW 6.3 mph 8.5 mph 81 % 0 in
21:39 58.1 °F 53.6 °F 29.7 in Calm   7.2 mph 81 % 0 in
21:44 58.1 °F 53.6 °F 29.7 in Calm   7.2 mph 81 % 0 in
21:49 58.1 °F 53.6 °F 29.7 in SW 6.3 mph 6.3 mph 81 % 0 in
21:54 58.1 °F 53.6 °F 29.7 in SW 4.5 mph 6.3 mph 81 % 0 in
21:59 58.1 °F 53.6 °F 29.7 in SSW 5.4 mph 7.4 mph 81 % 0 in
22:04 58.1 °F 53.6 °F 29.8 in Calm   7.4 mph 81 % 0 in
22:09 58.1 °F 53.6 °F 29.8 in SSW 2.9 mph 7.2 mph 81 % 0 in
22:14 58.1 °F 53.6 °F 29.8 in SW 6 mph 9.8 mph 81 % 0 in
22:19 58.1 °F 53.6 °F 29.7 in South 4 mph 9.8 mph 81 % 0 in
22:24 58.1 °F 53.6 °F 29.7 in SSW 7.4 mph 7.4 mph 81 % 0 in
22:29 57.9 °F 53.6 °F 29.7 in SSW 0.9 mph 10.7 mph 83 % 0 in
22:34 57.9 °F 53.6 °F 29.7 in SW 2.7 mph 10.7 mph 83 % 0 in
22:37 57.9 °F 53.6 °F 29.7 in WSW 4.9 mph 6.5 mph 83 % 0 in
22:42 57.9 °F 53.6 °F 29.7 in SW 2 mph 7.8 mph 83 % 0 in
22:47 57.9 °F 53.6 °F 29.7 in SSW 6.3 mph 7.8 mph 83 % 0 in
22:52 57.9 °F 53.6 °F 29.7 in South 3.4 mph 7.4 mph 83 % 0 in
22:57 57.9 °F 53.6 °F 29.7 in SSW 3.6 mph 8.5 mph 83 % 0 in
23:02 57.9 °F 53.6 °F 29.7 in SW 4.3 mph 8.5 mph 83 % 0 in
23:07 57.7 °F 53.6 °F 29.7 in WSW 6 mph 9.4 mph 84 % 0 in
23:12 57.7 °F 53.6 °F 29.7 in South 4.9 mph 11.9 mph 84 % 0 in
23:17 57.7 °F 53.6 °F 29.7 in South 5.4 mph 11.9 mph 84 % 0 in
23:22 57.9 °F 53.6 °F 29.7 in SW 7.6 mph 9.8 mph 84 % 0 in
23:27 57.9 °F 53.6 °F 29.7 in South 8.5 mph 9.8 mph 84 % 0 in
23:32 57.9 °F 53.6 °F 29.6 in South 5.4 mph 10.3 mph 84 % 0 in
23:37 57.9 °F 53.6 °F 29.6 in SSW 7.6 mph 8.7 mph 84 % 0 in
23:42 57.9 °F 53.6 °F 29.6 in SW 7.6 mph 8.7 mph 84 % 0 in
23:47 57.9 °F 53.6 °F 29.7 in SSW 7.8 mph 8.7 mph 84 % 0 in
23:52 57.9 °F 53.6 °F 29.7 in South 6.3 mph 10.5 mph 84 % 0 in
23:57 57.9 °F 53.6 °F 29.7 in SSW 11 mph 15.4 mph 84 % 0 in
Le Gheer Warneton
Courtoisie de Weather Underground - 2.25 mb

Mise a jour : 18/12/2017 23:04:15
Généré par Cumulus 1.9.4 (1099)